Location: Écuvilly
(49.6505°N, 2.9206°E)
Time: 02:19:29
(UTC+00:00)

Cosmos 1400 Rocket - Pass Details

Date: 17 November 2025
Orbit: 476 x 513 km, 81.1° (Epoch: 13 December)

Event Time Altitude Azimuth Distance (km) Brightness Sun altitude
Rises 17:24:34 0° 159° (SSE) 2,621 6.2 -13.1°
Reaches altitude 10° 17:26:59 10° 145° (SE) 1,736 5.2 -13.5°
Maximum altitude 17:30:04 24° 91° (E) 1,105 3.8 -14.0°
Enters shadow 17:30:05 24° 91° (E) 1,105 3.8 -14.0°
